When you browse on this site, cookies collect data to enhance your experience and personalize the content and advertising you see.
Visit our Privacy Policy to learn more. By continuing to use the site, you agree to this use of cookies and data.
  • In Czech Republic
  • List of Countries
  • For 7 days
  • Water Temperature
  • Weather Map
  • Weather Widgets
  • user-avatar
    Login

    Hourly Weather Lanester

    Today, 3 June, Wednesday

    Time Temperature Precipitation Wind Pressure Humidity
    00:00 +12°C° 0 mm 4 mps 758 mmHg 64%
    01:00 +12°C° 0 mm 3 mps 758 mmHg 68%
    02:00 +12°C° 0 mm 3 mps 757 mmHg 72%
    03:00 +11°C° 0 mm 3 mps 757 mmHg 75%
    04:00 +12°C° 0 mm 3 mps 756 mmHg 76%
    05:00 +14°C° 0 mm 2 mps 756 mmHg 77%
    06:00 +15°C° 0 mm 2 mps 756 mmHg 78%
    07:00 +17°C° 0 mm 2 mps 755 mmHg 74%
    08:00 +19°C° 0 mm 2 mps 755 mmHg 69%
    09:00 +20°C° 0 mm 2 mps 754 mmHg 65%
    10:00 +21°C° 0.1 mm 3 mps 754 mmHg 61%
    11:00 +22°C° 0.1 mm 4 mps 754 mmHg 58%
    12:00 +23°C° 0.1 mm 5 mps 754 mmHg 55%
    13:00 +22°C° 0.6 mm 5 mps 753 mmHg 59%
    14:00 +21°C° 0.6 mm 5 mps 752 mmHg 64%
    15:00 +21°C° 0.6 mm 5 mps 752 mmHg 69%
    16:00 +20°C° 0.6 mm 5 mps 752 mmHg 71%
    17:00 +19°C° 0.6 mm 5 mps 751 mmHg 73%
    18:00 +17°C° 0.6 mm 5 mps 751 mmHg 75%
    19:00 +16°C° 0.4 mm 5 mps 751 mmHg 81%
    20:00 +15°C° 0.4 mm 5 mps 751 mmHg 86%
    21:00 +14°C° 0.4 mm 5 mps 751 mmHg 92%
    22:00 +13°C° 0.1 mm 6 mps 751 mmHg 92%
    23:00 +13°C° 0.1 mm 6 mps 751 mmHg 92%

    Tomorrow, 4 June, Thursday

    Time Temperature Precipitation Wind Pressure Humidity
    00:00 +12°C° 0.1 mm 7 mps 751 mmHg 93%
    01:00 +12°C° 0 mm 7 mps 751 mmHg 93%
    02:00 +11°C° 0 mm 7 mps 751 mmHg 94%
    03:00 +11°C° 0 mm 7 mps 751 mmHg 94%
    04:00 +11°C° 0.1 mm 7 mps 751 mmHg 93%
    05:00 +12°C° 0.1 mm 7 mps 751 mmHg 92%
    06:00 +12°C° 0.1 mm 7 mps 751 mmHg 91%
    07:00 +12°C° 0.1 mm 7 mps 752 mmHg 88%
    08:00 +12°C° 0.1 mm 7 mps 752 mmHg 86%
    09:00 +14°C° 0.1 mm 7 mps 752 mmHg 83%
    10:00 +15°C° 0 mm 7 mps 753 mmHg 75%
    11:00 +16°C° 0 mm 7 mps 753 mmHg 67%
    12:00 +17°C° 0 mm 6 mps 753 mmHg 59%
    13:00 +17°C° 0 mm 6 mps 753 mmHg 58%
    14:00 +17°C° 0 mm 6 mps 753 mmHg 57%
    15:00 +17°C° 0 mm 6 mps 753 mmHg 56%
    16:00 +16°C° 0 mm 6 mps 753 mmHg 60%
    17:00 +15°C° 0 mm 6 mps 753 mmHg 64%
    18:00 +15°C° 0 mm 6 mps 754 mmHg 68%
    19:00 +13°C° 0 mm 6 mps 754 mmHg 72%
    20:00 +12°C° 0 mm 5 mps 754 mmHg 77%
    21:00 +9°C° 0 mm 5 mps 755 mmHg 81%
    22:00 +9°C° 0 mm 5 mps 755 mmHg 81%
    23:00 +10°C° 0 mm 5 mps 755 mmHg 82%

    Day after tomorrow, 5 June, Friday

    Time Temperature Precipitation Wind Pressure Humidity
    00:00 +11°C° 0 mm 4 mps 755 mmHg 82%
    01:00 +12°C° 0 mm 5 mps 754 mmHg 83%
    02:00 +13°C° 0 mm 6 mps 754 mmHg 83%
    03:00 +14°C° 0 mm 7 mps 754 mmHg 84%
    04:00 +14°C° 0.1 mm 7 mps 753 mmHg 84%
    05:00 +14°C° 0.1 mm 7 mps 753 mmHg 85%
    06:00 +14°C° 0.1 mm 7 mps 753 mmHg 85%
    07:00 +15°C° 0 mm 7 mps 753 mmHg 82%
    08:00 +16°C° 0 mm 8 mps 753 mmHg 79%
    09:00 +16°C° 0 mm 8 mps 753 mmHg 75%
    10:00 +17°C° 0 mm 8 mps 753 mmHg 74%
    11:00 +17°C° 0 mm 9 mps 753 mmHg 72%
    12:00 +18°C° 0 mm 9 mps 753 mmHg 71%
    13:00 +17°C° 0.1 mm 9 mps 752 mmHg 72%
    14:00 +17°C° 0.1 mm 9 mps 752 mmHg 73%
    15:00 +17°C° 0.1 mm 9 mps 752 mmHg 74%
    16:00 +16°C° 0.1 mm 9 mps 752 mmHg 75%
    17:00 +16°C° 0.1 mm 8 mps 752 mmHg 77%
    18:00 +16°C° 0.1 mm 8 mps 752 mmHg 79%
    19:00 +15°C° 0.1 mm 8 mps 752 mmHg 79%
    20:00 +15°C° 0.1 mm 7 mps 753 mmHg 80%
    21:00 +15°C° 0.1 mm 7 mps 753 mmHg 81%
    22:00 +14°C° 0.1 mm 6 mps 753 mmHg 82%
    23:00 +14°C° 0.1 mm 6 mps 753 mmHg 83%

    6 June, Saturday

    Time Temperature Precipitation Wind Pressure Humidity
    00:00 +13°C° 0.1 mm 5 mps 753 mmHg 84%
    01:00 +13°C° 0 mm 5 mps 753 mmHg 84%
    02:00 +12°C° 0 mm 5 mps 753 mmHg 84%
    03:00 +10°C° 0 mm 5 mps 753 mmHg 84%
    04:00 +12°C° 0 mm 5 mps 753 mmHg 84%
    05:00 +12°C° 0 mm 5 mps 753 mmHg 84%
    06:00 +12°C° 0 mm 5 mps 753 mmHg 83%
    07:00 +13°C° 0 mm 5 mps 754 mmHg 76%
    08:00 +14°C° 0 mm 5 mps 754 mmHg 69%
    09:00 +15°C° 0 mm 5 mps 754 mmHg 62%
    10:00 +15°C° 0 mm 5 mps 754 mmHg 60%
    11:00 +15°C° 0 mm 5 mps 755 mmHg 58%
    12:00 +16°C° 0 mm 5 mps 755 mmHg 56%
    13:00 +16°C° 0 mm 6 mps 755 mmHg 55%
    14:00 +16°C° 0 mm 6 mps 755 mmHg 54%
    15:00 +16°C° 0 mm 6 mps 755 mmHg 53%
    16:00 +15°C° 0 mm 6 mps 755 mmHg 56%
    17:00 +14°C° 0 mm 6 mps 755 mmHg 59%
    18:00 +13°C° 0 mm 6 mps 755 mmHg 63%
    19:00 +12°C° 0 mm 5 mps 756 mmHg 67%
    20:00 +9°C° 0 mm 5 mps 756 mmHg 71%
    21:00 +7°C° 0 mm 4 mps 756 mmHg 74%
    22:00 +7°C° 0 mm 4 mps 757 mmHg 76%
    23:00 +6°C° 0 mm 4 mps 757 mmHg 78%

    7 June, Sunday

    Time Temperature Precipitation Wind Pressure Humidity
    00:00 +6°C° 0 mm 4 mps 757 mmHg 80%
    01:00 +6°C° 0 mm 4 mps 757 mmHg 82%
    02:00 +6°C° 0 mm 4 mps 757 mmHg 84%
    03:00 +6°C° 0 mm 4 mps 757 mmHg 86%
    04:00 +7°C° 0.1 mm 4 mps 757 mmHg 84%
    05:00 +8°C° 0.1 mm 4 mps 757 mmHg 81%
    06:00 +10°C° 0.1 mm 4 mps 757 mmHg 78%
    07:00 +10°C° 0.1 mm 5 mps 757 mmHg 78%
    08:00 +11°C° 0.1 mm 6 mps 758 mmHg 77%
    09:00 +11°C° 0.1 mm 6 mps 758 mmHg 77%
    10:00 +12°C° 0 mm 7 mps 758 mmHg 71%
    11:00 +15°C° 0 mm 7 mps 758 mmHg 65%
    12:00 +16°C° 0 mm 7 mps 758 mmHg 59%
    13:00 +16°C° 0.1 mm 7 mps 758 mmHg 62%
    14:00 +15°C° 0.1 mm 7 mps 758 mmHg 65%
    15:00 +15°C° 0.1 mm 7 mps 758 mmHg 68%
    16:00 +15°C° 0.1 mm 7 mps 758 mmHg 69%
    17:00 +15°C° 0.1 mm 6 mps 758 mmHg 71%
    18:00 +15°C° 0.1 mm 6 mps 758 mmHg 72%
    19:00 +14°C° 0 mm 5 mps 759 mmHg 78%
    20:00 +12°C° 0 mm 5 mps 759 mmHg 84%
    21:00 +10°C° 0 mm 5 mps 759 mmHg 89%
    22:00 +9°C° 0 mm 5 mps 759 mmHg 91%
    23:00 +9°C° 0 mm 5 mps 759 mmHg 92%

    8 June, Monday

    Time Temperature Precipitation Wind Pressure Humidity
    00:00 +10°C° 0 mm 4 mps 759 mmHg 94%
    01:00 +10°C° 0 mm 4 mps 759 mmHg 94%
    02:00 +10°C° 0 mm 4 mps 759 mmHg 94%
    03:00 +8°C° 0 mm 4 mps 759 mmHg 95%
    04:00 +10°C° 0 mm 4 mps 759 mmHg 93%
    05:00 +11°C° 0 mm 4 mps 759 mmHg 92%
    06:00 +12°C° 0 mm 4 mps 759 mmHg 91%
    07:00 +14°C° 0 mm 4 mps 760 mmHg 83%
    08:00 +15°C° 0 mm 4 mps 760 mmHg 75%
    09:00 +18°C° 0 mm 4 mps 760 mmHg 67%
    10:00 +18°C° 0 mm 4 mps 760 mmHg 64%
    11:00 +19°C° 0 mm 4 mps 760 mmHg 62%
    12:00 +19°C° 0 mm 4 mps 760 mmHg 60%
    13:00 +19°C° 0 mm 5 mps 760 mmHg 59%
    14:00 +20°C° 0 mm 5 mps 760 mmHg 59%
    15:00 +20°C° 0 mm 6 mps 760 mmHg 59%
    16:00 +19°C° 0 mm 6 mps 760 mmHg 62%
    17:00 +17°C° 0 mm 6 mps 760 mmHg 64%
    18:00 +17°C° 0 mm 6 mps 760 mmHg 67%
    19:00 +15°C° 0 mm 5 mps 761 mmHg 73%
    20:00 +14°C° 0 mm 5 mps 761 mmHg 79%
    21:00 +12°C° 0 mm 4 mps 761 mmHg 85%
    22:00 +11°C° 0 mm 4 mps 761 mmHg 88%
    23:00 +10°C° 0 mm 3 mps 761 mmHg 91%
    Show more